Weather History for K2J9 - August, 2014

Change the Weather History Date:

Tuesday, August 26, 2014

  Actual Average (KTLH) Record (KTLH)
Temperature  
Mean Temperature 83 °F 82 °F  
Max Temperature 98 °F 91 °F 101 °F (1938)
Min Temperature 68 °F 72 °F 60 °F (1997)
Degree Days  
Heating Degree Days 0    
Month to date heating degree days  
Since 1 June heating degree days  
Since 1 July heating degree days  
Cooling Degree Days 18    
Month to date cooling degree days  
Year to date cooling degree days  
Since 1 June cooling degree days  
Growing Degree Days 33 (Base 50)    
Moisture  
Dew Point 68 °F    
Average Humidity 65    
Maximum Humidity 94    
Minimum Humidity 37    
Precipitation  
Precipitation 0.00 in 0.21 in 1.83 in (1993)
Month to date precipitation 6.40  
Year to date precipitation 42.96  
Sea Level Pressure  
Sea Level Pressure 30.01 in    
Wind  
Wind Speed 3 mph (NE)    
Max Wind Speed 10 mph    
Max Gust Speed 18 mph    
Visibility 10 miles    
Events      
T = Trace of Precipitation, MM = Missing Value Source: NWS Daily Summary

Daily Weather History Graph

Daily Weather History Graph

Search for Another Location

Airport or City:

Trip Planner

Search our weather history database for the weather conditions in past years. The results will help you decide how hot, cold, wet, or windy it might be!

Date:

Astronomy

Aug. 26, 2014 Rise Set
Actual Time 7:11 AM EDT 8:08 PM EDT
Civil Twilight 6:46 AM EDT 8:32 PM EDT
Nautical Twilight 6:17 AM EDT 9:02 PM EDT
Astronomical Twilight 5:47 AM EDT 9:32 PM EDT
Moon 8:03 AM EDT (8/26) 8:38 PM EDT (8/26)
Length of Visible Light 13h 46m
Length of Day
12h 56m
New Moon, 1% of the Moon is Illuminated
Aug 26
New Moon
Sep 2
First Quarter
Sep 8
Full
Sep 15
Last Quarter
Sep 24
New

Hourly Weather History & Observations

Time (EDT) Temp. Heat Index Dew Point Humidity Pressure Visibility Wind Dir Wind Speed Gust Speed Precip Events Conditions
12:15 AM 69.8 °F - 64.4 °F 83% 30.01 in 10.0 mi Calm Calm - N/A   Clear
12:35 AM 69.8 °F - 64.4 °F 83% 30.00 in 10.0 mi Calm Calm - N/A   Clear
12:55 AM 68.0 °F - 64.4 °F 88% 30.00 in 10.0 mi Calm Calm - N/A   Clear
1:15 AM 68.0 °F - 64.4 °F 88% 30.00 in 10.0 mi Calm Calm - N/A   Scattered Clouds
1:55 AM 68.0 °F - 64.4 °F 88% 30.00 in 10.0 mi Calm Calm - N/A   Mostly Cloudy
2:15 AM 68.0 °F - 64.4 °F 88% 29.99 in 10.0 mi Calm Calm - N/A   Mostly Cloudy
2:35 AM 68.0 °F - 64.4 °F 88% 29.99 in 10.0 mi Calm Calm - N/A   Partly Cloudy
2:55 AM 68.0 °F - 64.4 °F 88% 29.99 in 10.0 mi Calm Calm - N/A   Mostly Cloudy
3:35 AM 68.0 °F - 64.4 °F 88% 29.99 in 10.0 mi Calm Calm - N/A   Mostly Cloudy
3:55 AM 69.8 °F - 64.4 °F 83% 29.99 in 10.0 mi NE 5.8 mph - N/A   Overcast
4:15 AM 69.8 °F - 64.4 °F 83% 29.99 in 10.0 mi NE 6.9 mph - N/A   Overcast
4:35 AM 71.6 °F - 64.4 °F 78% 29.99 in 10.0 mi NE 6.9 mph - N/A   Overcast
4:55 AM 71.6 °F - 64.4 °F 78% 29.98 in 10.0 mi NE 5.8 mph - N/A   Overcast
5:15 AM 71.6 °F - 64.4 °F 78% 29.98 in 10.0 mi NE 6.9 mph - N/A   Overcast
5:35 AM 71.6 °F - 64.4 °F 78% 29.99 in 10.0 mi NE 5.8 mph - N/A   Mostly Cloudy
5:55 AM 71.6 °F - 64.4 °F 78% 29.99 in 10.0 mi NE 5.8 mph - N/A   Mostly Cloudy
6:15 AM 71.6 °F - 64.4 °F 78% 30.00 in 10.0 mi NE 4.6 mph - N/A   Overcast
6:35 AM 71.6 °F - 64.4 °F 78% 30.00 in 10.0 mi Calm Calm - N/A   Overcast
6:55 AM 69.8 °F - 64.4 °F 83% 30.01 in 10.0 mi Calm Calm - N/A   Overcast
7:55 AM 73.4 °F - 66.2 °F 78% 30.02 in 10.0 mi Calm Calm - N/A   Clear
8:15 AM 75.2 °F - 66.2 °F 73% 30.03 in 10.0 mi NE 4.6 mph - N/A   Clear
8:35 AM 77.0 °F - 68.0 °F 74% 30.03 in 10.0 mi ENE 4.6 mph - N/A   Clear
8:55 AM 78.8 °F - 68.0 °F 69% 30.03 in 10.0 mi ENE 8.1 mph - N/A   Clear
9:15 AM 80.6 °F 83.2 °F 68.0 °F 65% 30.03 in 10.0 mi ENE 6.9 mph - N/A   Clear
9:35 AM 82.4 °F 85.4 °F 68.0 °F 62% 30.04 in 10.0 mi NE 6.9 mph - N/A   Clear
9:55 AM 82.4 °F 85.4 °F 68.0 °F 62% 30.04 in 10.0 mi ENE 9.2 mph - N/A   Clear
10:15 AM 84.2 °F 87.3 °F 68.0 °F 58% 30.04 in 10.0 mi NE 9.2 mph - N/A   Clear
10:35 AM 84.2 °F 87.3 °F 68.0 °F 58% 30.05 in 10.0 mi NE 8.1 mph - N/A   Clear
10:55 AM 84.2 °F 88.4 °F 69.8 °F 62% 30.05 in 10.0 mi NE 4.6 mph - N/A   Clear
11:15 AM 86.0 °F 90.4 °F 69.8 °F 58% 30.05 in 10.0 mi NE 8.1 mph - N/A   Clear
11:35 AM 87.8 °F 92.6 °F 69.8 °F 55% 30.05 in 10.0 mi East 8.1 mph - N/A   Clear
11:55 AM 89.6 °F 93.4 °F 68.0 °F 49% 30.04 in 10.0 mi ENE 5.8 mph - N/A   Partly Cloudy
12:15 PM 91.4 °F 96.8 °F 69.8 °F 49% 30.04 in 10.0 mi East 5.8 mph - N/A   Mostly Cloudy
12:35 PM 93.2 °F 98.8 °F 69.8 °F 46% 30.04 in 10.0 mi Calm Calm - N/A   Mostly Cloudy
12:55 PM 91.4 °F 96.8 °F 69.8 °F 49% 30.03 in 10.0 mi East 9.2 mph - N/A   Overcast
1:15 PM 93.2 °F 98.8 °F 69.8 °F 46% 30.03 in 10.0 mi ENE 5.8 mph - N/A   Mostly Cloudy
1:35 PM 95.0 °F 101.3 °F 69.8 °F 44% 30.03 in 10.0 mi NE 5.8 mph - N/A   Mostly Cloudy
1:55 PM 98.6 °F 104.1 °F 68.0 °F 37% 30.02 in 10.0 mi North 8.1 mph - N/A   Mostly Cloudy
2:15 PM 95.0 °F 99.5 °F 68.0 °F 41% 30.02 in 10.0 mi NNE 6.9 mph - N/A   Mostly Cloudy
2:35 PM 96.8 °F 101.8 °F 68.0 °F 39% 30.01 in 10.0 mi NE 9.2 mph - N/A   Mostly Cloudy
2:55 PM 98.6 °F 104.1 °F 68.0 °F 37% 30.00 in 10.0 mi ENE 10.4 mph 16.1 mph N/A   Partly Cloudy
3:15 PM 98.6 °F 104.1 °F 68.0 °F 37% 29.99 in 10.0 mi NE 9.2 mph - N/A   Clear
3:35 PM 98.6 °F 104.1 °F 68.0 °F 37% 29.99 in 10.0 mi ENE 6.9 mph - N/A   Clear
3:55 PM 96.8 °F 101.8 °F 68.0 °F 39% 29.98 in 10.0 mi ENE 6.9 mph 16.1 mph N/A   Partly Cloudy
4:35 PM 95.0 °F 101.3 °F 69.8 °F 44% 29.98 in 10.0 mi NE 6.9 mph - N/A   Mostly Cloudy
4:55 PM 93.2 °F 97.7 °F 68.0 °F 44% 29.98 in 10.0 mi NE 6.9 mph - N/A   Partly Cloudy
5:15 PM 93.2 °F 98.8 °F 69.8 °F 46% 29.98 in 10.0 mi NE 9.2 mph - N/A   Clear
5:35 PM 95.0 °F 99.5 °F 68.0 °F 41% 29.98 in 10.0 mi ENE 10.4 mph - N/A   Partly Cloudy
5:55 PM 93.2 °F 97.7 °F 68.0 °F 44% 29.98 in 10.0 mi NE 9.2 mph 18.4 mph N/A   Clear
6:15 PM 93.2 °F 97.7 °F 68.0 °F 44% 29.98 in 10.0 mi ENE 10.4 mph - N/A   Clear
6:35 PM 93.2 °F 97.7 °F 68.0 °F 44% 29.99 in 10.0 mi ENE 10.4 mph - N/A   Scattered Clouds
6:55 PM 91.4 °F 95.4 °F 68.0 °F 46% 29.99 in 10.0 mi East 5.8 mph - N/A   Mostly Cloudy
7:15 PM 91.4 °F 95.4 °F 68.0 °F 46% 29.99 in 10.0 mi ENE 5.8 mph - N/A   Mostly Cloudy
7:35 PM 89.6 °F 94.7 °F 69.8 °F 52% 30.00 in 10.0 mi Calm Calm - N/A   Mostly Cloudy
7:55 PM 86.0 °F 90.4 °F 69.8 °F 58% 30.00 in 10.0 mi Calm Calm - N/A   Overcast
8:15 PM 84.2 °F 88.4 °F 69.8 °F 62% 30.00 in 10.0 mi Calm Calm - N/A   Mostly Cloudy
8:35 PM 82.4 °F 86.3 °F 69.8 °F 66% 30.01 in 10.0 mi Calm Calm - N/A   Scattered Clouds
8:55 PM 80.6 °F 84.6 °F 71.6 °F 74% 30.02 in 10.0 mi Calm Calm - N/A   Clear
9:35 PM 78.8 °F - 69.8 °F 74% 30.03 in 10.0 mi Calm Calm - N/A   Partly Cloudy
9:55 PM 77.0 °F - 71.6 °F 83% 30.03 in 10.0 mi Calm Calm - N/A   Scattered Clouds
10:15 PM 77.0 °F - 71.6 °F 83% 30.03 in 10.0 mi Calm Calm - N/A   Partly Cloudy
10:35 PM 75.2 °F - 71.6 °F 89% 30.03 in 10.0 mi Calm Calm - N/A   Clear
10:55 PM 75.2 °F - 71.6 °F 89% 30.03 in 10.0 mi Calm Calm - N/A   Partly Cloudy
11:15 PM 73.4 °F - 71.6 °F 94% 30.02 in 10.0 mi Calm Calm - N/A   Partly Cloudy
11:35 PM 73.4 °F - 71.6 °F 94% 30.02 in 10.0 mi Calm Calm - N/A   Clear
11:55 PM 73.4 °F - 69.8 °F 88% 30.02 in 10.0 mi Calm Calm - N/A   Partly Cloudy